| time (UTC) | temp F | wind direction | speed MPH | gust MPH | rain 1hr in | rain 24hr in | rain mn in | humidity % | barometer mb |
| 20260508050047 | 58 | 29 | 0.0 | 0.0 | 0.00 | 0.00 | 0.00 | 45 | 1009.3 |
| 20260508044539 | 58 | 29 | 0.0 | 0.0 | 0.00 | 0.00 | 0.00 | 44 | 1009.5 |
| 20260508043026 | 59 | 29 | 0.0 | 0.0 | 0.00 | 0.00 | 0.00 | 43 | 1009.3 |
| 20260508041520 | 60 | 29 | 0.0 | 0.0 | 0.00 | 0.00 | 0.00 | 42 | 1009.3 |
| 20260508040103 | 61 | 29 | 0.0 | 0.0 | 0.00 | 0.00 | 0.00 | 40 | 1009.0 |
| 20260508034548 | 61 | 29 | 0.0 | 0.0 | 0.00 | 0.00 | 0.00 | 39 | 1008.9 |
| 20260508033036 | 62 | 29 | 0.0 | 0.0 | 0.00 | 0.00 | 0.00 | 38 | 1009.0 |
| 20260508031538 | 62 | 29 | 0.0 | 0.0 | 0.00 | 0.00 | 0.00 | 40 | 1008.8 |
| 20260508030028 | 64 | 29 | 0.0 | 0.0 | 0.00 | 0.00 | 0.00 | 38 | 1008.7 |
| 20260508024514 | 65 | 29 | 0.0 | 0.0 | 0.00 | 0.00 | 0.00 | 38 | 1008.7 |
| 20260508023102 | 66 | 29 | 0.0 | 0.0 | 0.00 | 0.00 | 0.00 | 37 | 1008.7 |
| 20260508021556 | 68 | 29 | 0.0 | 0.0 | 0.00 | 0.00 | 0.00 | 33 | 1008.7 |
| 20260508014536 | 72 | 29 | 0.0 | 0.0 | 0.00 | 0.00 | 0.00 | 28 | 1008.4 |
| 20260508013014 | 73 | 29 | 1.0 | 0.0 | 0.00 | 0.00 | 0.00 | 28 | 1008.6 |
| 20260508011521 | 73 | 29 | 0.0 | 0.0 | 0.00 | 0.00 | 0.00 | 30 | 1008.7 |
| 20260508010116 | 72 | 29 | 1.0 | 0.0 | 0.00 | 0.00 | 0.00 | 28 | 1008.8 |
| 20260508004551 | 72 | 29 | 2.0 | 0.0 | 0.00 | 0.00 | 0.00 | 27 | 1008.9 |
| 20260508003047 | 72 | 29 | 0.0 | 0.0 | 0.00 | 0.00 | 0.00 | 30 | 1009.3 |
| 20260508001544 | 72 | 29 | 0.0 | 0.0 | 0.00 | 0.00 | 0.00 | 28 | 1009.1 |
| 20260508000025 | 72 | 29 | 0.0 | 0.0 | 0.00 | 0.00 | 0.00 | 26 | 1009.3 |
| 20260507234505 | 73 | 29 | 0.0 | 0.0 | 0.00 | 0.00 | 0.00 | 27 | 1009.7 |
| 20260507233052 | 75 | 29 | 1.0 | 0.0 | 0.00 | 0.00 | 0.00 | 26 | 1009.8 |
| 20260507231539 | 74 | 29 | 1.0 | 0.0 | 0.00 | 0.00 | 0.00 | 26 | 1010.1 |
| 20260507230025 | 74 | 29 | 2.0 | 0.0 | 0.00 | 0.00 | 0.00 | 25 | 1010.5 |
| 20260507224507 | 74 | 32 | 2.0 | 0.0 | 0.00 | 0.00 | 0.00 | 26 | 1010.6 |
| 20260507223005 | 74 | 333 | 1.0 | 0.0 | 0.00 | 0.00 | 0.00 | 27 | 1011.0 |
| 20260507221541 | 74 | 308 | 2.0 | 0.0 | 0.00 | 0.00 | 0.00 | 26 | 1011.1 |
| 20260507220008 | 74 | 32 | 1.0 | 0.0 | 0.00 | 0.00 | 0.00 | 25 | 1011.3 |
| 20260507214556 | 74 | 32 | 2.0 | 0.0 | 0.00 | 0.00 | 0.00 | 26 | 1011.5 |
| 20260507213019 | 75 | 236 | 2.0 | 0.0 | 0.00 | 0.00 | 0.00 | 25 | 1011.6 |
| 20260507211514 | 74 | 236 | 2.0 | 0.0 | 0.00 | 0.00 | 0.00 | 25 | 1011.8 |
| 20260507210055 | 73 | 240 | 2.0 | 0.0 | 0.00 | 0.00 | 0.00 | 24 | 1012.3 |
| 20260507204543 | 73 | 237 | 2.0 | 0.0 | 0.00 | 0.00 | 0.00 | 25 | 1012.5 |
| 20260507203021 | 74 | 240 | 2.0 | 0.0 | 0.00 | 0.00 | 0.00 | 24 | 1012.6 |
| 20260507201505 | 72 | 299 | 1.0 | 0.0 | 0.00 | 0.00 | 0.00 | 24 | 1012.9 |
| 20260507200100 | 71 | 299 | 1.0 | 0.0 | 0.00 | 0.00 | 0.00 | 26 | 1013.0 |
| 20260507194607 | 71 | 298 | 1.0 | 0.0 | 0.00 | 0.00 | 0.00 | 25 | 1013.2 |
| 20260507193047 | 71 | 289 | 2.0 | 0.0 | 0.00 | 0.00 | 0.00 | 25 | 1013.3 |
| 20260507191543 | 70 | 290 | 2.0 | 0.0 | 0.00 | 0.00 | 0.00 | 25 | 1013.5 |
| 20260507190024 | 70 | 293 | 1.0 | 0.0 | 0.00 | 0.00 | 0.00 | 27 | 1013.6 |
| 20260507184524 | 70 | 294 | 1.0 | 0.0 | 0.00 | 0.00 | 0.00 | 27 | 1013.9 |
| 20260507183013 | 69 | 307 | 0.0 | 0.0 | 0.00 | 0.00 | 0.00 | 31 | 1014.1 |
| 20260507181559 | 68 | 307 | 0.0 | 0.0 | 0.00 | 0.00 | 0.00 | 32 | 1014.3 |
| 20260507180041 | 66 | 313 | 1.0 | 0.0 | 0.00 | 0.00 | 0.00 | 32 | 1014.3 |
| 20260507174512 | 66 | 314 | 0.0 | 0.0 | 0.00 | 0.00 | 0.00 | 31 | 1014.4 |
| 20260507173059 | 65 | 315 | 1.0 | 0.0 | 0.00 | 0.00 | 0.00 | 32 | 1014.5 |
| 20260507171552 | 64 | 314 | 1.0 | 0.0 | 0.00 | 0.00 | 0.00 | 32 | 1014.8 |
| 20260507170042 | 63 | 315 | 0.0 | 0.0 | 0.00 | 0.00 | 0.00 | 36 | 1014.9 |
| 20260507164508 | 61 | 314 | 1.0 | 0.0 | 0.00 | 0.00 | 0.00 | 35 | 1015.1 |
| 20260507163059 | 61 | 314 | 2.0 | 0.0 | 0.00 | 0.00 | 0.00 | 36 | 1015.2 |
| 20260507161556 | 61 | 314 | 1.0 | 0.0 | 0.00 | 0.00 | 0.00 | 37 | 1015.2 |
| 20260507160047 | 60 | 314 | 1.0 | 0.0 | 0.00 | 0.00 | 0.00 | 36 | 1015.1 |
| 20260507154533 | 60 | 314 | 1.0 | 0.0 | 0.00 | 0.00 | 0.00 | 36 | 1015.1 |
| 20260507153036 | 60 | 313 | 1.0 | 0.0 | 0.00 | 0.00 | 0.00 | 35 | 1015.4 |
| 20260507151527 | 60 | 302 | 1.0 | 0.0 | 0.00 | 0.00 | 0.00 | 36 | 1015.4 |
| 20260507150033 | 57 | 252 | 1.0 | 0.0 | 0.00 | 0.00 | 0.00 | 42 | 1015.4 |
| 20260507144520 | 53 | 251 | 0.0 | 0.0 | 0.00 | 0.00 | 0.00 | 53 | 1015.3 |
| 20260507143001 | 52 | 250 | 0.0 | 0.0 | 0.00 | 0.00 | 0.00 | 56 | 1015.5 |
| 20260507141558 | 51 | 251 | 0.0 | 0.0 | 0.00 | 0.00 | 0.00 | 55 | 1015.5 |
| 20260507140036 | 51 | 251 | 0.0 | 0.0 | 0.00 | 0.00 | 0.00 | 59 | 1015.7 |
| 20260507134532 | 48 | 251 | 0.0 | 0.0 | 0.00 | 0.00 | 0.00 | 63 | 1015.6 |
| 20260507133014 | 46 | 250 | 0.0 | 0.0 | 0.00 | 0.00 | 0.00 | 62 | 1015.6 |
| 20260507131557 | 45 | 251 | 0.0 | 0.0 | 0.00 | 0.00 | 0.00 | 61 | 1015.8 |
| 20260507124524 | 44 | 251 | 0.0 | 0.0 | 0.00 | 0.00 | 0.00 | 60 | 1016.1 |
| 20260507123023 | 44 | 251 | 0.0 | 0.0 | 0.00 | 0.00 | 0.00 | 60 | 1015.8 |
| 20260507121528 | 44 | 251 | 0.0 | 0.0 | 0.00 | 0.00 | 0.00 | 61 | 1015.4 |
| 20260507120007 | 44 | 251 | 0.0 | 0.0 | 0.00 | 0.00 | 0.00 | 60 | 1015.2 |
| 20260507114600 | 44 | 251 | 0.0 | 0.0 | 0.00 | 0.00 | 0.00 | 59 | 1015.4 |
| 20260507113045 | 44 | 250 | 0.0 | 0.0 | 0.00 | 0.00 | 0.00 | 58 | 1015.7 |
| 20260507111529 | 44 | 251 | 0.0 | 0.0 | 0.00 | 0.00 | 0.00 | 58 | 1015.7 |
| 20260507110016 | 44 | 251 | 0.0 | 0.0 | 0.00 | 0.00 | 0.00 | 56 | 1015.4 |
| 20260507104506 | 44 | 251 | 0.0 | 0.0 | 0.00 | 0.00 | 0.00 | 56 | 1015.4 |
| 20260507103005 | 45 | 251 | 0.0 | 0.0 | 0.00 | 0.00 | 0.00 | 56 | 1015.5 |
| 20260507101551 | 45 | 250 | 0.0 | 0.0 | 0.00 | 0.00 | 0.00 | 55 | 1015.8 |
| 20260507100032 | 45 | 251 | 0.0 | 0.0 | 0.00 | 0.00 | 0.00 | 55 | 1015.9 |
| 20260507094510 | 45 | 251 | 0.0 | 0.0 | 0.00 | 0.00 | 0.00 | 55 | 1016.0 |
| 20260507093101 | 45 | 251 | 0.0 | 0.0 | 0.00 | 0.00 | 0.00 | 54 | 1016.1 |
| 20260507091551 | 45 | 250 | 0.0 | 0.0 | 0.00 | 0.00 | 0.00 | 53 | 1016.1 |
| 20260507090032 | 45 | 251 | 0.0 | 0.0 | 0.00 | 0.00 | 0.00 | 53 | 1016.2 |
| 20260507084534 | 45 | 250 | 0.0 | 0.0 | 0.00 | 0.00 | 0.00 | 54 | 1016.4 |
| 20260507083004 | 45 | 251 | 0.0 | 0.0 | 0.00 | 0.00 | 0.00 | 53 | 1016.7 |
| 20260507081550 | 45 | 251 | 0.0 | 0.0 | 0.00 | 0.00 | 0.00 | 52 | 1016.7 |
| 20260507080021 | 46 | 250 | 0.0 | 0.0 | 0.00 | 0.00 | 0.00 | 53 | 1016.7 |
| 20260507074510 | 46 | 250 | 0.0 | 0.0 | 0.00 | 0.00 | 0.00 | 52 | 1016.8 |
| 20260507073008 | 47 | 250 | 0.0 | 0.0 | 0.00 | 0.00 | 0.00 | 50 | 1017.0 |
| 20260507071605 | 47 | 250 | 0.0 | 0.0 | 0.00 | 0.00 | 0.00 | 52 | 1017.1 |
| 20260507064557 | 46 | 251 | 0.0 | 0.0 | 0.00 | 0.00 | 0.13 | 51 | 1017.3 |
| 20260507063043 | 46 | 251 | 0.0 | 0.0 | 0.00 | 0.00 | 0.13 | 53 | 1017.3 |
| 20260507061509 | 47 | 250 | 0.0 | 0.0 | 0.00 | 0.00 | 0.13 | 51 | 1017.2 |
| 20260507060045 | 47 | 251 | 0.0 | 0.0 | 0.00 | 0.00 | 0.13 | 50 | 1017.2 |
| 20260507054540 | 48 | 251 | 0.0 | 0.0 | 0.00 | 0.00 | 0.13 | 49 | 1017.1 |
| 20260507053013 | 48 | 250 | 0.0 | 0.0 | 0.00 | 0.00 | 0.13 | 52 | 1017.3 |
| 20260507051508 | 48 | 250 | 0.0 | 0.0 | 0.00 | 0.00 | 0.13 | 48 | 1017.3 |